Temp
63 63 64 64 64 64 64 64 64 63 63 63 64 63 63 63 64 72 75 79 79 70 72 82 82 82 81 77 78 78 68 67 70 69 73 78 75 81 81 78 82 82 81 84 78
63 63 63 63 63 63 64 64 63 63 63 63 63 63 63 63 75 77 77 74 72 71 82 79 78 79 78 76 75 72 67 70 78 78 75 78 76 77 77 77 79 81 84 85 79
62 62 62 63 63 63 63 63 63 63 63 63 63 63 62 66 74 80 72 72 70 73 84 85 82 78 73 75 75 73 67 77 77 77 76 73 74 79 73 71 79 80 83 86 86
62 62 62 62 62 63 63 63 63 63 63 63 62 62 62 75 68 79 70 71 70 82 81 79 77 72 70 69 77 65 73 73 74 74 70 69 76 72 74 75 82 83 84 83 82
61 61 61 61 62 62 63 63 63 63 62 62 62 62 70 74 77 78 69 70 78 79 78 77 75 74 69 73 72 66 71 73 74 71 70 72 69 70 73 80 83 84 83 81 80
61 60 60 61 61 62 62 63 63 62 62 63 63 61 73 67 77 79 76 75 80 78 78 79 76 78 71 70 69 73 68 69 71 71 72 68 69 72 75 82 82 80 80 81 81
61 60 60 60 61 61 62 62 62 62 62 63 63 70 72 74 79 78 76 77 78 79 76 79 78 73 73 68 73 68 62 69 71 73 69 68 63 66 77 80 78 79 82 83 83
61 60 60 60 60 61 61 62 62 62 62 62 63 73 70 73 80 74 77 75 77 78 76 76 77 73 69 72 68 64 66 59 69 67 68 66 60 73 78 75 74 77 79 80 82
60 60 60 60 60 60 61 61 62 62 62 63 68 71 70 68 71 74 76 73 74 75 74 75 74 69 67 62 61 65 56 61 65 71 67 63 60 70 76 73 71 74 77 78 79
60 60 60 60 60 60 61 62 63 63 66 71 73 66 71 68 69 70 74 74 70 70 68 68 68 63 63 61 52 58 59 61 61 68 66 63 62 68 72 72 71 74 76 76 77
60 60 60 60 60 61 65 71 67 66 67 69 69 69 69 69 71 68 70 70 70 67 60 64 59 56 63 65 64 62 56 56 62 67 63 61 61 65 70 71 70 73 75 75 76
60 60 60 60 61 61 66 68 62 61 60 71 67 63 66 68 64 65 70 64 62 58 62 56 54 64 66 61 58 58 55 55 61 66 58 58 57 62 67 69 71 72 72 74 75
60 60 60 60 60 64 66 64 66 66 58 63 62 61 63 65 62 64 67 64 60 58 58 55 62 63 60 59 56 57 54 54 53 58 60 56 56 63 68 72 72 71 72 74 71
60 59 60 60 59 69 65 65 66 66 54 58 56 60 62 63 57 64 66 63 60 56 59 58 62 57 56 53 56 49 57 55 53 50 47 57 44 58 66 68 69 70 72 69 67
59 59 60 59 63 64 66 66 65 62 38 58 56 66 62 58 58 57 64 62 56 57 56 55 54 52 51 54 57 54 54 53 52 49 50 52 45 58 62 61 65 68 65 64 62
58 59 59 57 57 58 58 59 62 49 36 52 57 55 55 57 56 58 59 63 60 56 57 56 57 57 58 57 56 56 53 55 54 50 41 53 52 54 58 61 64 61 60 58 57
57 58 57 59 55 56 56 54 42 37 54 50 52 55 56 54 54 56 54 53 53 48 50 54 54 58 57 53 54 52 50 42 41 41 40 55 47 53 61 66 61 56 55 55 56
55 57 56 58 56 57 54 48 34 43 46 56 54 54 52 56 56 54 54 53 58 55 51 47 46 54 57 55 54 52 53 42 29 34 41 50 42 53 65 58 57 56 55 55 54
55 56 56 57 57 58 50 39 40 49 54 52 52 49 51 53 53 54 55 53 57 58 48 48 48 56 55 59 57 54 46 55 41 39 36 44 52 61 64 54 54 53 53 51 51
55 54 55 60 57 54 45 40 44 54 56 53 45 53 47 50 49 50 51 55 53 55 57 51 41 55 56 54 54 51 52 42 43 30 29 42 45 48 52 51 51 48 48 49 50
50 46 54 57 56 48 39 42 47 53 53 47 46 48 50 48 51 50 48 54 57 55 55 53 47 47 51 49 48 48 44 44 45 41 32 32 41 58 48 46 46 45 46 46 46
50 42 54 55 44 45 41 45 46 47 49 47 47 43 43 41 39 46 47 52 58 54 47 52 39 34 43 54 56 52 48 49 38 34 40 37 39 60 55 46 45 45 44 44 45
48 49 54 51 40 41 48 45 47 46 46 44 43 45 50 46 41 47 48 52 51 50 46 49 36 30 36 47 49 42 45 45 44 39 31 28 35 55 51 49 43 42 43 45 45
47 40 46 45 48 45 44 43 42 49 48 49 47 50 45 43 47 42 44 46 44 44 40 42 36 32 29 37 35 32 37 40 35 28 31 32 34 43 47 45 42 41 43 44 44
45 42 44 36 39 42 45 45 42 41 47 47 44 44 43 38 40 40 44 41 39 39 39 37 31 34 35 37 35 33 32 33 31 32 25 32 32 38 43 40 39 42 42 42 42
40 38 41 42 44 41 41 40 40 42 42 41 41 41 41 36 37 33 36 37 37 37 36 34 30 31 26 34 34 30 34 34 33 33 33 33 32 43 39 40 40 40 40 39 40
42 44 41 39 38 38 39 40 39 43 36 39 39 37 34 38 38 38 39 38 38 35 33 31 29 26 23 32 27 22 29 34 36 39 38 30 32 34 34 36 38 37 39 39 40
MSLP
1019.39 1019.27 1019.13 1018.88 1018.69 1018.43 1018.20 1017.95 1017.76 1017.53 1017.32 1017.16 1017.03 1016.81 1016.62 1016.35 1015.92 1015.72 1014.31 1013.48 1013.42 1013.77 1013.91 1013.74 1013.62 1013.41 1013.32 1012.92 1012.92 1012.55 1011.11 1009.29 1008.60 1008.68 1008.35 1009.15 1009.26 1009.18 1009.57 1009.44 1008.90 1008.94 1008.91 1009.04 1010.14
1019.55 1019.36 1019.24 1019.10 1018.85 1018.59 1018.34 1018.02 1017.75 1017.52 1017.28 1017.08 1016.88 1016.69 1016.54 1016.30 1015.34 1014.17 1013.35 1013.46 1013.73 1013.84 1013.56 1013.28 1013.02 1013.17 1012.62 1012.56 1012.62 1012.14 1010.70 1009.32 1008.86 1008.89 1009.08 1009.09 1009.46 1009.37 1009.27 1008.85 1008.30 1008.08 1008.31 1008.74 1009.70
1019.62 1019.51 1019.29 1019.13 1018.91 1018.67 1018.34 1018.12 1017.82 1017.50 1017.31 1017.02 1016.83 1016.64 1016.44 1016.20 1014.92 1013.05 1013.40 1013.46 1013.73 1013.89 1013.38 1013.05 1012.94 1012.96 1012.53 1012.44 1011.95 1011.41 1010.49 1009.57 1009.48 1009.77 1009.92 1009.99 1009.75 1009.54 1009.33 1008.36 1007.74 1007.29 1007.46 1007.79 1008.10
1019.56 1019.46 1019.36 1019.09 1018.85 1018.63 1018.35 1018.03 1017.78 1017.52 1017.23 1017.01 1016.76 1016.52 1016.36 1015.74 1014.37 1013.35 1013.48 1013.58 1013.83 1013.65 1013.46 1013.18 1013.05 1012.80 1012.34 1011.85 1011.36 1011.56 1010.69 1010.61 1010.27 1010.59 1010.75 1010.40 1009.97 1009.68 1009.28 1007.93 1007.94 1007.66 1007.56 1007.59 1007.78
1019.61 1019.43 1019.25 1019.06 1018.77 1018.49 1018.22 1017.90 1017.62 1017.36 1017.12 1016.87 1016.73 1016.57 1016.25 1015.04 1013.42 1013.42 1013.63 1013.76 1013.85 1013.77 1013.26 1013.02 1012.73 1012.44 1012.07 1011.51 1011.68 1011.50 1010.75 1010.67 1010.66 1010.98 1010.84 1010.61 1010.17 1009.83 1008.70 1007.93 1007.75 1007.31 1007.14 1007.18 1007.48
1019.40 1019.41 1019.18 1018.94 1018.69 1018.37 1018.07 1017.72 1017.33 1017.02 1016.80 1016.62 1016.56 1016.64 1015.89 1014.39 1013.45 1013.40 1013.71 1013.91 1013.42 1013.52 1013.16 1013.02 1012.54 1012.44 1012.29 1012.02 1011.96 1011.11 1011.36 1011.03 1010.86 1010.67 1010.56 1010.32 1009.74 1009.45 1008.02 1007.46 1007.03 1007.15 1006.96 1006.77 1006.76
1019.29 1019.20 1019.11 1018.86 1018.56 1018.22 1017.88 1017.47 1017.04 1016.69 1016.50 1016.36 1016.38 1016.06 1015.04 1013.61 1013.39 1013.62 1013.76 1013.70 1013.76 1013.42 1013.19 1013.13 1013.20 1013.12 1012.61 1012.08 1011.95 1011.96 1011.34 1010.43 1009.92 1009.75 1010.28 1010.49 1009.64 1008.43 1007.76 1007.36 1006.98 1006.74 1006.21 1005.99 1006.00
1019.12 1019.04 1018.93 1018.73 1018.46 1018.10 1017.75 1017.23 1016.79 1016.47 1016.30 1016.19 1016.34 1015.69 1014.22 1013.94 1013.67 1013.89 1013.74 1013.80 1013.88 1013.89 1013.79 1013.80 1013.65 1013.42 1013.18 1012.61 1012.25 1011.78 1011.09 1009.92 1009.15 1009.93 1010.36 1010.70 1008.67 1007.88 1007.58 1007.55 1006.81 1006.37 1005.92 1005.75 1005.53
1018.90 1018.85 1018.76 1018.56 1018.31 1017.90 1017.51 1017.04 1016.68 1016.43 1016.29 1016.32 1016.14 1015.26 1013.83 1014.19 1013.91 1013.92 1013.89 1013.62 1013.84 1013.95 1014.02 1013.95 1013.72 1013.29 1013.18 1012.61 1011.76 1010.74 1009.89 1009.30 1008.88 1009.26 1010.04 1010.49 1008.82 1008.31 1008.03 1007.55 1006.14 1005.85 1005.69 1005.42 1005.26
1018.60 1018.64 1018.54 1018.35 1018.18 1017.77 1017.28 1016.85 1016.56 1016.54 1016.12 1015.79 1015.41 1015.34 1013.84 1013.74 1013.91 1014.07 1014.10 1014.02 1013.86 1013.92 1013.91 1013.80 1013.46 1013.03 1012.48 1011.98 1010.70 1009.86 1009.46 1009.17 1009.00 1009.21 1009.33 1009.34 1008.52 1008.22 1007.54 1007.14 1005.37 1005.24 1005.67 1005.42 1005.43
1018.31 1018.40 1018.33 1018.24 1017.99 1017.70 1017.00 1016.48 1016.63 1016.15 1015.39 1014.17 1013.95 1013.58 1013.55 1014.08 1014.22 1014.10 1014.10 1013.94 1013.81 1013.72 1013.39 1013.57 1013.08 1012.04 1011.41 1011.24 1010.98 1010.71 1010.62 1009.99 1009.64 1009.66 1009.35 1008.97 1008.50 1008.10 1007.05 1005.81 1005.44 1005.48 1005.51 1005.69 1005.79
1018.05 1018.11 1018.16 1018.06 1017.89 1017.61 1017.06 1016.36 1016.94 1017.36 1015.35 1013.72 1013.90 1014.04 1014.13 1014.18 1013.94 1014.02 1014.29 1013.96 1013.65 1013.10 1013.18 1013.64 1012.42 1011.82 1011.54 1011.90 1011.82 1011.44 1010.92 1010.46 1010.03 1009.81 1010.26 1009.31 1008.42 1007.26 1006.56 1005.07 1005.15 1005.36 1005.74 1006.08 1006.47
1017.73 1017.84 1017.90 1017.96 1017.66 1017.23 1016.93 1016.96 1017.21 1017.11 1016.08 1013.98 1013.92 1013.98 1014.15 1014.35 1013.70 1013.48 1014.06 1013.62 1013.34 1013.13 1013.06 1012.51 1011.63 1011.94 1012.04 1011.96 1011.84 1011.47 1011.22 1010.93 1010.77 1010.53 1010.20 1009.46 1007.56 1005.82 1005.51 1004.75 1005.15 1005.89 1006.36 1006.66 1007.37
1017.26 1017.52 1017.69 1017.91 1018.09 1016.74 1016.72 1017.21 1017.40 1017.31 1015.64 1013.57 1013.96 1014.00 1014.32 1014.21 1014.16 1014.32 1014.17 1013.99 1013.44 1012.90 1012.67 1012.34 1012.04 1012.09 1012.24 1012.20 1012.22 1011.79 1011.81 1011.59 1011.38 1011.24 1010.17 1009.86 1007.39 1006.23 1004.70 1004.43 1005.15 1005.98 1006.49 1007.83 1008.88
1016.91 1017.12 1017.25 1017.77 1017.37 1016.87 1016.68 1017.05 1017.40 1017.50 1015.20 1013.51 1013.77 1014.19 1014.16 1014.19 1014.29 1014.34 1014.58 1014.16 1013.28 1013.02 1013.17 1012.04 1012.46 1012.65 1012.48 1012.38 1012.50 1012.06 1012.56 1012.38 1011.97 1011.38 1010.40 1009.45 1008.77 1005.41 1005.17 1005.01 1005.64 1006.66 1007.93 1009.21 1010.57
1016.44 1016.65 1017.02 1017.43 1017.51 1017.32 1017.26 1017.64 1017.41 1016.89 1014.09 1013.35 1013.43 1013.67 1013.70 1013.75 1013.89 1014.14 1014.22 1014.15 1013.94 1013.25 1012.96 1012.34 1012.94 1012.73 1012.09 1012.46 1012.66 1012.74 1012.52 1011.88 1011.56 1011.27 1009.60 1007.88 1007.28 1005.73 1005.54 1005.81 1006.69 1008.16 1009.67 1010.96 1011.82
1016.08 1016.25 1016.72 1016.59 1017.26 1017.34 1017.70 1018.17 1017.44 1015.41 1013.59 1013.08 1012.71 1013.10 1013.08 1013.04 1013.19 1013.33 1013.42 1013.47 1013.07 1012.78 1012.03 1011.83 1012.03 1012.00 1012.33 1012.38 1012.70 1012.89 1012.50 1011.16 1010.51 1009.94 1008.62 1007.99 1007.62 1006.56 1006.54 1006.70 1008.14 1009.70 1010.91 1012.12 1012.94
1016.24 1016.44 1016.62 1016.55 1017.06 1017.45 1017.85 1017.90 1016.19 1014.52 1013.46 1012.88 1012.71 1012.85 1012.35 1012.57 1012.57 1012.75 1012.62 1012.24 1012.36 1012.27 1011.85 1011.40 1010.68 1011.06 1011.70 1011.67 1011.43 1011.86 1011.72 1011.77 1011.23 1010.31 1008.90 1008.83 1006.71 1006.28 1006.60 1008.18 1009.66 1010.98 1012.05 1012.74 1013.57
1016.40 1016.46 1016.55 1016.66 1017.12 1017.28 1017.28 1016.48 1014.96 1014.03 1013.39 1013.06 1013.11 1012.74 1012.15 1012.39 1012.51 1012.29 1011.84 1011.91 1012.05 1012.16 1012.22 1011.50 1010.44 1011.12 1011.39 1011.48 1011.92 1011.43 1012.06 1012.01 1012.02 1011.39 1010.69 1007.65 1007.00 1006.59 1006.97 1009.09 1010.48 1011.66 1012.45 1013.31 1014.02
1016.82 1016.66 1016.26 1016.21 1016.82 1017.08 1017.20 1015.69 1014.90 1014.11 1013.72 1013.66 1013.17 1012.53 1012.05 1012.35 1012.37 1012.11 1011.98 1012.27 1012.58 1012.93 1013.17 1012.72 1011.76 1011.33 1011.36 1012.19 1012.32 1012.36 1012.55 1012.55 1012.59 1011.80 1010.02 1007.03 1007.18 1006.97 1008.24 1009.89 1011.54 1012.95 1014.11 1014.78 1015.08
1017.37 1016.99 1016.63 1016.59 1016.69 1016.89 1016.00 1015.64 1015.06 1014.63 1014.54 1014.71 1014.14 1013.40 1013.05 1013.08 1012.80 1012.09 1012.15 1012.60 1012.93 1013.25 1014.04 1013.93 1013.88 1012.39 1012.28 1012.15 1012.21 1012.67 1012.70 1012.81 1012.65 1012.22 1010.86 1009.30 1006.75 1007.38 1009.38 1011.55 1013.00 1014.28 1015.19 1015.97 1016.58
1017.32 1016.87 1016.42 1016.54 1016.51 1016.02 1015.31 1015.02 1015.16 1014.82 1015.00 1015.18 1014.80 1014.45 1014.48 1014.62 1014.03 1013.27 1012.76 1012.75 1013.55 1014.26 1014.62 1015.15 1015.87 1014.35 1013.02 1012.25 1012.31 1012.59 1012.39 1012.56 1012.56 1012.04 1011.57 1010.45 1008.46 1008.79 1010.05 1012.58 1014.17 1015.28 1016.17 1016.61 1016.87
1016.56 1016.74 1016.55 1016.56 1015.79 1015.19 1014.86 1015.12 1015.02 1014.90 1014.95 1015.31 1014.95 1014.81 1014.63 1014.23 1014.41 1013.85 1013.87 1014.22 1014.80 1015.40 1015.67 1015.57 1016.71 1016.19 1013.79 1013.31 1013.35 1013.61 1013.95 1014.12 1013.76 1013.71 1012.70 1012.10 1010.00 1010.54 1011.69 1012.81 1014.98 1016.08 1016.60 1016.95 1017.21
1016.90 1016.62 1016.63 1016.11 1015.57 1015.24 1015.01 1015.06 1015.14 1015.13 1014.87 1015.06 1015.04 1015.03 1015.29 1015.08 1015.06 1014.76 1015.09 1015.84 1016.60 1017.12 1017.81 1017.83 1017.44 1017.28 1016.87 1015.40 1016.33 1016.13 1016.03 1015.79 1015.74 1014.88 1013.97 1013.07 1012.50 1012.84 1012.89 1014.01 1015.24 1016.31 1016.73 1017.01 1017.13
1016.84 1015.95 1015.52 1015.48 1015.01 1015.38 1015.35 1014.83 1014.81 1015.20 1015.56 1015.37 1015.17 1015.34 1015.73 1016.00 1015.80 1015.79 1016.28 1017.33 1018.04 1018.64 1019.08 1019.24 1018.52 1018.32 1017.87 1017.31 1017.15 1017.08 1016.81 1016.25 1016.56 1016.18 1015.79 1014.08 1014.34 1014.18 1014.63 1015.53 1016.45 1016.70 1017.02 1017.24 1017.24
1017.07 1016.71 1016.28 1015.46 1015.26 1015.22 1015.56 1014.87 1014.95 1015.32 1015.58 1015.75 1015.78 1016.22 1016.57 1016.99 1017.26 1017.87 1018.07 1018.73 1018.94 1019.74 1019.99 1020.55 1019.50 1019.30 1018.71 1018.33 1018.11 1017.57 1016.36 1016.34 1016.46 1016.42 1015.77 1015.58 1014.84 1015.13 1016.10 1016.74 1016.61 1016.65 1016.91 1017.05 1016.86
1017.46 1017.11 1016.52 1015.90 1015.63 1015.77 1015.33 1015.02 1015.32 1015.88 1016.98 1016.98 1017.00 1017.37 1017.76 1018.14 1018.81 1019.34 1019.65 1019.95 1020.10 1020.23 1020.60 1021.06 1020.69 1020.47 1019.03 1018.91 1018.92 1017.78 1016.02 1016.06 1015.80 1015.32 1015.12 1015.24 1016.06 1016.73 1016.79 1017.05 1017.00 1017.05 1017.10 1016.98 1016.65
Wind_Speed
6 6 7 7 8 8 8 9 9 9 9 9 11 10 10 10 9 5 8 1 2 13 6 7 7 5 5 3 3 2 6 8 8 6 2 5 8 4 2 11 9 9 12 6 4
4 5 6 7 8 9 9 9 10 10 10 10 11 11 11 10 7 11 2 2 7 10 9 10 9 7 6 4 4 7 8 10 5 7 8 10 8 12 12 13 15 15 17 13 8
4 5 5 7 8 9 10 11 11 10 10 10 10 11 10 11 8 2 5 6 10 9 7 7 5 7 8 5 7 5 9 8 8 9 10 10 14 13 12 16 15 12 9 11 10
4 5 7 8 9 10 11 12 12 11 11 11 10 9 9 5 7 4 3 7 9 9 7 6 6 6 7 9 7 9 14 12 10 6 6 11 12 12 15 24 19 19 17 14 16
6 6 8 9 11 11 12 13 13 12 11 11 9 7 5 6 7 4 5 8 10 8 10 9 10 9 10 7 7 14 14 10 11 10 15 15 17 17 20 24 21 19 15 15 14
6 7 8 9 11 12 13 14 15 14 12 10 7 5 6 11 3 3 4 6 7 11 9 10 5 6 11 11 11 10 11 15 14 15 14 16 17 12 12 14 12 12 15 14 14
7 7 8 9 11 12 13 14 15 13 10 10 6 5 6 11 2 4 5 3 3 8 8 8 5 7 6 9 6 9 13 15 18 16 9 4 9 13 17 14 15 16 15 14 14
8 8 9 10 12 13 13 15 12 8 5 0 5 5 8 2 2 3 4 3 2 3 3 2 3 6 6 4 7 9 11 10 3 6 3 6 14 14 8 7 17 23 23 20 19
8 8 9 10 12 13 14 14 4 2 3 4 5 5 6 2 2 1 3 3 4 3 2 3 4 5 4 8 11 12 11 14 14 4 5 8 14 12 18 21 26 22 19 17 16
8 8 9 9 12 14 16 6 4 3 5 4 3 5 5 1 4 3 1 5 2 6 5 6 6 8 9 10 11 15 19 20 17 15 9 15 23 20 21 19 25 21 18 15 11
8 8 8 9 11 12 11 4 6 6 6 7 2 6 1 3 2 2 1 6 4 7 7 7 9 11 14 15 16 18 17 21 20 18 21 19 16 17 22 22 22 17 11 8 8
9 8 8 8 10 13 6 5 3 3 9 9 9 7 3 1 4 5 5 9 6 11 5 4 13 16 16 7 12 16 20 19 16 13 5 15 19 25 22 23 13 7 6 6 9
9 8 7 8 9 7 3 1 0 2 6 4 2 2 0 5 6 7 8 4 8 12 11 17 14 6 8 13 16 17 18 18 20 17 13 12 15 4 11 15 5 0 3 9 13
10 9 8 6 4 2 4 5 2 1 7 7 5 3 4 3 4 1 2 5 5 9 13 13 8 9 13 14 13 16 7 7 9 7 9 9 9 13 14 9 5 3 8 15 15
11 10 9 9 5 4 5 6 4 4 10 6 5 3 3 3 3 3 1 4 9 5 5 2 0 1 5 6 3 4 3 6 8 11 14 8 8 5 1 2 4 7 16 17 16
11 11 8 3 2 0 5 4 4 5 10 4 4 5 5 5 3 4 3 2 2 6 9 15 3 4 7 1 7 1 7 13 10 7 8 12 11 2 5 5 7 16 16 15 15
1 9 8 4 1 5 5 2 3 7 0 6 4 5 7 6 6 7 7 8 5 5 9 9 10 7 4 7 6 6 8 6 6 7 9 3 6 9 8 13 10 11 13 13 14
2 5 1 2 4 6 2 4 8 2 5 1 3 5 6 9 5 5 4 8 9 6 9 8 8 11 11 9 7 10 8 5 8 12 18 12 13 8 1 15 14 13 12 12 12
4 1 2 3 4 4 2 8 5 6 2 4 3 7 9 6 4 5 9 11 7 7 8 11 13 5 10 4 3 6 8 7 7 12 11 11 19 18 7 12 10 11 13 16 16
1 1 3 7 8 2 4 5 4 5 3 3 11 10 6 9 9 7 4 4 2 2 4 6 15 10 4 4 8 8 5 7 6 7 18 19 16 14 6 7 8 8 10 11 12
1 2 2 2 3 3 6 6 5 6 3 4 9 15 9 9 11 7 6 5 7 7 4 7 9 9 5 8 12 9 6 8 10 10 14 18 13 7 10 8 7 8 8 8 9
2 4 3 3 4 3 7 5 2 3 1 6 1 4 3 2 5 11 15 13 3 2 5 6 3 8 17 18 20 14 19 20 15 15 14 16 19 11 11 13 10 10 6 5 7
3 3 2 2 7 10 5 4 5 6 5 4 5 10 9 8 6 9 10 5 4 5 3 3 3 7 9 6 7 6 8 13 15 11 17 16 16 13 18 6 9 6 6 7 6
3 5 3 3 4 11 12 15 12 5 11 10 8 7 7 10 11 7 5 5 5 5 6 4 3 12 16 16 7 8 11 15 9 5 10 14 16 20 17 17 10 6 7 8 10
4 4 1 6 10 12 12 5 14 11 7 6 5 14 12 8 8 14 11 2 3 3 3 1 6 8 12 17 14 12 16 19 16 17 11 21 20 21 20 11 6 5 7 9 11
4 4 2 0 4 16 14 13 16 10 6 9 11 5 3 4 2 1 3 2 6 3 2 1 7 5 10 14 15 17 21 17 18 21 25 24 28 17 4 4 8 10 12 15 16
1 1 2 4 6 7 10 12 7 8 3 2 1 3 3 2 3 2 1 3 3 3 4 4 3 4 15 8 10 13 16 20 19 21 19 16 8 1 1 4 10 15 17 18 17
Wind_Direction
27 19 11 9 4 359 354 352 346 341 333 329 328 327 327 327 299 221 250 246 142 158 208 158 193 193 214 207 241 281 256 269 275 268 305 141 275 165 297 281 256 245 274 340 100
359 3 357 348 343 339 336 336 332 327 325 324 325 324 325 330 276 265 67 76 142 169 180 192 201 196 222 230 214 235 250 285 318 304 284 307 277 295 289 269 268 254 234 251 220
331 331 337 333 330 328 327 324 322 314 311 309 311 315 321 313 280 98 30 141 164 191 254 239 280 223 251 250 215 214 253 295 299 295 304 289 288 284 268 273 267 282 300 288 249
310 318 321 321 323 322 321 319 318 310 303 300 301 307 318 252 297 72 335 161 165 201 203 199 214 227 252 232 233 259 249 275 283 316 286 274 293 280 267 268 284 291 287 286 275
299 308 313 316 318 321 322 321 318 308 298 293 286 299 275 236 262 67 104 141 168 197 212 214 233 243 258 274 283 246 270 288 279 274 273 280 268 270 275 276 285 285 283 273 261
286 298 303 308 311 317 320 322 319 312 304 292 266 281 248 258 78 86 115 159 192 204 218 225 245 290 288 275 261 331 297 285 282 272 273 267 273 287 269 283 293 285 278 272 263
277 284 295 303 307 313 316 320 316 311 306 297 226 237 251 261 50 121 151 189 226 235 233 238 279 240 345 262 305 288 293 291 270 251 267 274 257 237 262 268 288 287 281 271 262
271 284 296 306 310 314 317 318 312 315 345 237 197 234 265 40 29 182 178 142 175 197 266 322 227 264 255 323 263 271 279 285 101 126 183 228 283 296 345 314 288 287 285 287 288
266 280 294 305 311 315 319 317 278 39 113 154 222 250 260 146 172 69 266 242 156 152 84 134 195 242 197 243 270 235 271 281 297 328 259 228 300 304 306 297 284 284 292 295 300
260 275 290 305 314 317 321 289 216 238 213 235 263 241 175 105 113 116 96 178 178 156 155 198 215 232 225 234 255 293 298 297 294 291 244 273 284 291 287 277 276 286 304 304 311
249 265 282 302 310 319 326 257 226 199 207 247 337 285 48 69 187 137 173 163 150 204 218 199 226 221 244 240 270 283 285 284 285 298 291 295 293 292 281 278 279 290 310 334 3
246 257 276 296 309 314 280 307 32 360 295 250 273 274 233 329 269 164 182 198 201 220 186 195 240 258 275 293 288 278 277 279 284 295 337 291 297 276 276 269 273 295 311 41 48
238 249 266 287 312 284 319 56 84 307 257 221 205 264 96 220 242 218 199 212 221 245 223 250 261 336 275 259 264 264 271 286 287 314 279 297 286 219 246 256 274 205 120 83 33
223 234 251 281 285 146 214 141 153 318 266 192 173 149 170 221 211 28 261 259 216 258 243 265 302 274 262 257 266 280 312 301 289 298 302 20 291 293 278 265 102 99 106 57 57
222 225 219 218 341 224 85 140 152 241 278 79 131 88 143 226 98 107 186 206 243 211 214 212 224 219 239 248 194 299 336 291 281 275 291 263 246 292 220 260 141 92 61 80 65
222 217 204 160 193 340 81 83 212 214 242 137 131 171 185 183 154 137 179 226 331 232 234 262 133 241 248 185 231 319 270 264 254 268 254 255 228 314 20 113 125 72 61 53 52
151 206 169 136 167 118 102 274 192 221 134 165 166 188 217 171 167 194 175 185 215 233 211 180 209 190 209 252 189 220 273 291 263 219 259 284 275 257 306 277 75 89 81 69 56
84 143 232 87 128 134 147 225 229 199 251 96 170 181 223 180 175 172 188 243 213 256 291 279 262 175 167 224 295 199 218 260 273 280 293 286 267 260 292 91 98 95 86 72 56
153 107 139 182 161 169 201 217 207 182 239 243 165 234 213 224 258 232 247 272 297 204 247 305 264 105 185 241 238 207 225 279 283 279 268 260 267 262 206 107 81 56 43 29 23
321 216 210 141 147 241 222 229 220 257 287 240 236 232 249 192 192 191 246 95 249 8 295 295 292 262 272 170 219 235 352 249 205 255 261 274 284 288 223 139 63 45 23 19 24
315 170 119 175 157 209 214 220 228 247 273 204 246 266 248 240 240 236 213 258 257 218 273 306 255 252 272 225 255 232 234 218 261 253 262 274 272 19 98 78 47 28 12 16 5
195 246 148 180 220 200 213 190 169 192 79 207 229 29 330 339 302 276 266 259 132 44 244 240 306 274 267 286 291 281 270 266 255 255 244 250 259 273 43 82 40 13 14 358 346
198 248 130 262 221 222 210 241 221 195 172 190 228 195 224 252 258 249 262 37 72 223 286 115 210 295 294 248 237 256 301 305 295 297 265 272 274 323 323 360 73 347 338 329 323
166 205 190 214 246 245 227 232 230 216 241 237 258 246 246 243 241 260 254 81 45 52 40 46 225 234 259 290 345 289 284 273 240 241 287 267 292 290 296 317 2 359 337 328 328
205 231 230 198 205 216 220 214 225 217 228 222 233 238 233 243 253 244 256 333 88 37 58 335 252 246 279 284 282 267 266 268 270 270 265 285 286 292 301 318 324 322 336 327 324
199 196 185 183 246 207 219 225 225 189 187 210 229 127 178 215 229 58 104 210 260 97 186 115 274 311 276 275 264 272 262 261 262 265 264 260 266 283 68 301 320 338 341 329 326
130 22 292 146 178 197 220 222 219 224 101 310 130 173 205 261 84 91 312 286 281 242 205 222 235 230 264 297 332 276 261 259 266 263 279 279 327 73 203 328 336 333 329 321 317